FW3161 Weather Reports


time (UTC)temp
C
wind
direction
speed
KPH
gust
KPH
rain 1hr
cm
rain 24hr
cm
rain mn
cm
humidity
%
barometer
mb
20260506044526 21 360 4.8 14.5 0.00 0.00 0.00 19 1011.3
20260506043025 21 360 6.4 14.5 0.00 0.00 0.00 19 1011.2
20260506041535 21 360 8.0 17.7 0.00 0.00 0.00 19 1011.1
20260506040023 21 360 8.0 17.7 0.00 0.00 0.00 18 1010.9
20260506034533 21 360 6.4 16.1 0.00 0.00 0.00 18 1010.8
20260506033023 21 360 4.8 16.1 0.00 0.00 0.00 17 1010.8
20260506031522 22 360 8.0 17.7 0.00 0.00 0.00 16 1010.4
20260506030020 22 360 8.0 19.3 0.00 0.00 0.00 15 1010.2
20260506024520 22 360 6.4 20.9 0.00 0.00 0.00 15 1010.1
20260506023019 22 360 9.7 25.7 0.00 0.00 0.00 15 1009.9
20260506021519 22 360 11.3 27.4 0.00 0.00 0.00 15 1009.6
20260506020020 23 360 14.5 29.0 0.00 0.00 0.00 14 1009.4
20260506014522 23 360 14.5 22.5 0.00 0.00 0.00 13 1009.3
20260506013034 23 360 11.3 25.7 0.00 0.00 0.00 12 1009.3
20260506011524 24 251 9.7 20.9 0.00 0.00 0.00 12 1009.1
20260506010019 25 201 12.9 25.7 0.00 0.00 0.00 12 1008.9
20260506004518 25 211 17.7 32.2 0.00 0.00 0.00 12 1008.8
20260506003015 24 360 16.1 27.4 0.00 0.00 0.00 13 1008.7
20260506001514 25 360 16.1 33.8 0.00 0.00 0.00 14 1008.6
20260506000012 25 360 14.5 30.6 0.00 0.00 0.00 12 1008.5
20260505234512 25 360 14.5 30.6 0.00 0.00 0.00 12 1008.4
20260505233016 26 360 12.9 25.7 0.00 0.00 0.00 9 1008.4
20260505231507 25 360 6.4 16.1 0.00 0.00 0.00 11 1008.5
20260505230007 25 360 14.5 30.6 0.00 0.00 0.00 13 1008.6
20260505224511 26 360 11.3 32.2 0.00 0.00 0.00 12 1008.7
20260505223004 25 360 12.9 22.5 0.00 0.00 0.00 13 1008.8
20260505221501 25 188 11.3 20.9 0.00 0.00 0.00 14 1009.1
20260505220104 25 204 8.0 24.1 0.00 0.00 0.00 16 1009.4
20260505214700 25 202 8.0 27.4 0.00 0.00 0.00 16 1009.5
20260505213058 24 360 12.9 24.1 0.00 0.00 0.00 16 1009.6
20260505211604 23 360 6.4 29.0 0.00 0.00 0.00 17 1009.9
20260505210106 25 272 12.9 33.8 0.00 0.00 0.00 16 1010.0
20260505204603 23 360 11.3 35.4 0.00 0.00 0.00 17 1010.1
20260505203107 25 219 12.9 27.4 0.00 0.00 0.00 16 1010.0
20260505201555 25 360 9.7 24.1 0.00 0.00 0.00 16 1010.1
20260505200108 24 360 4.8 20.9 0.00 0.00 0.00 17 1010.2
20260505194554 25 360 9.7 22.5 0.00 0.00 0.00 16 1010.4
20260505193102 25 360 9.7 25.7 0.00 0.00 0.00 17 1010.4
20260505191653 25 360 14.5 30.6 0.00 0.00 0.00 17 1010.6
20260505190049 23 46 9.7 33.8 0.00 0.00 0.00 19 1010.7
20260505184549 24 188 11.3 32.2 0.00 0.00 0.00 20 1010.7
20260505183047 23 205 11.3 24.1 0.00 0.00 0.00 21 1010.9
20260505181554 23 147 9.7 29.0 0.00 0.00 0.00 21 1011.0
20260505180042 23 190 8.0 32.2 0.00 0.00 0.00 24 1011.1
20260505174541 23 186 9.7 20.9 0.00 0.00 0.00 25 1011.0
20260505173041 22 219 12.9 25.7 0.00 0.00 0.00 24 1010.9
20260505171538 22 211 4.8 17.7 0.00 0.00 0.00 24 1010.9
20260505170038 22 360 9.7 22.5 0.00 0.00 0.00 25 1010.9
20260505164536 22 360 3.2 19.3 0.00 0.00 0.00 24 1011.0
20260505163034 21 360 8.0 16.1 0.00 0.00 0.00 25 1011.0
20260505161541 20 360 6.4 17.7 0.00 0.00 0.00 26 1011.1
20260505153031 20 360 6.4 20.9 0.00 0.00 0.00 26 1011.0
20260505151530 19 360 6.4 19.3 0.00 0.00 0.00 28 1011.0
20260505124523 17 360 1.6 6.4 0.00 0.00 0.00 44 1009.8
20260505123022 17 360 4.8 12.9 0.00 0.00 0.00 43 1009.8
20260505121531 18 360 4.8 12.9 0.00 0.00 0.00 42 1009.6
20260505120019 18 360 1.6 9.7 0.00 0.00 0.00 42 1009.6
20260505114518 18 360 4.8 9.7 0.00 0.00 0.00 41 1009.4
20260505113016 18 360 4.8 9.7 0.00 0.00 0.00 40 1009.5
20260505111515 18 360 4.8 14.5 0.00 0.00 0.00 40 1009.4
20260505101510 19 360 4.8 16.1 0.00 0.00 0.00 38 1009.7
20260505100014 20 360 9.7 20.9 0.00 0.00 0.00 38 1009.8
20260505094502 20 360 8.0 20.9 0.00 0.00 0.00 36 1010.1
20260505093101 20 360 11.3 24.1 0.00 0.00 0.00 34 1010.1
20260505091605 20 360 9.7 20.9 0.00 0.00 0.00 33 1010.4
20260505084556 20 360 4.8 12.9 0.00 0.00 0.00 31 1010.5
20260505083100 20 360 3.2 12.9 0.00 0.00 0.00 30 1010.6
20260505081557 21 360 11.3 20.9 0.00 0.00 0.00 28 1010.9
20260505080050 21 360 3.2 17.7 0.00 0.00 0.00 26 1010.8
20260505074544 21 360 4.8 17.7 0.00 0.00 0.00 26 1011.0
20260505073045 21 360 6.4 16.1 0.00 0.00 0.00 26 1010.7
20260505071547 21 360 8.0 19.3 0.00 0.00 0.00 25 1010.5
20260505070037 22 360 8.0 19.3 0.00 0.00 0.00 26 1010.6
20260505064540 22 360 8.0 17.7 0.00 0.00 0.00 26 1010.6
20260505063039 22 360 4.8 12.9 0.00 0.00 0.00 26 1010.5
20260505061537 22 360 6.4 17.7 0.00 0.00 0.00 26 1010.4
20260505060038 22 360 4.8 12.9 0.00 0.00 0.00 27 1010.3